Hourly Weather Roundup
Issued by NWS Central Illinois

Home | Current Version | Previous Version | Text Only | Print | Product List | Glossary On
Versions: 1 2 3 4 5 6 7 8 9 10 11 12 13 14 15 16 17 18 19 20 21 22 23 24 25 26 27 28 29 30 31 32 33 34 35 36 37 38 39 40 41 42 43 44 45 46 47 48 49 50
000
NZUS43 KILX 011410
HWRILX

AREA WEATHER ROUNDUP
NATIONAL WEATHER SERVICE, LINCOLN IL
900 AM CDT FRI AUG 01 2014


CITY           SKY/WX    TMP DP  RH WIND       PRES   REMARKS
BLOOMINGTON    MOSUNNY   71  62  73 SW3       30.12S
CHAMPAIGN      SUNNY     72  65  78 CALM      30.11S
DECATUR        SUNNY     70  64  81 CALM      30.10S
FLORA          SUNNY     71  66  85 CALM      30.10S
GALESBURG      CLOUDY    65  62  89 E5        30.11S
JACKSONVILLE   SUNNY     75  66  74 CALM      30.09S
LACON          PTSUNNY   71  63  77 CALM      30.10R
LAWRENCEVILLE  SUNNY     74  66  76 NE3       30.11S
LITCHFIELD     SUNNY     72  66  83 CALM      30.10S
$$


CITY           SKY/WX    TMP DP  RH WIND       PRES   REMARKS
LINCOLN        SUNNY     72  64  76 CALM      30.07S
MACOMB         PTSUNNY   69  64  85 N10       30.13R
MATTOON          N/A     75  66  73 CALM      30.10S
MT CARMEL AP   SUNNY     75  70  83 N3        30.10S
OLNEY-NOBLE AP SUNNY     73  68  83 CALM      30.11S
PARIS          SUNNY     73  67  82 CALM      30.12S
PEORIA         MOSUNNY   75  62  64 CALM      30.09F
PONTIAC        PTSUNNY   72  66  83 CALM      30.10S
RANTOUL        MOSUNNY   72  64  74 CALM      30.12S
ROBINSON       SUNNY     74  66  76 CALM      30.11F
SPRINGFIELD    MOSUNNY   74  65  73 CALM      30.09S
TAYLORVILLE    SUNNY     72  64  78 CALM      30.09S
$$

...REGIONAL REPORTS...


CITY           SKY/WX    TMP DP  RH WIND       PRES   REMARKS
CHICAGO O`HARE MOSUNNY   74  56  53 W7        30.08F
KANKAKEE       PTSUNNY   70  63  79 CALM      30.12S
MOLINE         MOSUNNY   70  63  78 SW7       30.09S
MOUNT VERNON   SUNNY     72  66  83 CALM      30.11S
PITTSFIELD     PTSUNNY   71  65  83 CALM      30.10R
QUINCY         PTSUNNY   70  59  68 CALM      30.09R
ROCKFORD       MOSUNNY   71  63  75 CALM      30.10F
$$


CITY           SKY/WX    TMP DP  RH WIND       PRES   REMARKS
BURLINGTON     CLOUDY    67  63  87 SE6       30.09S
CEDAR RAPIDS   SUNNY     69  65  86 CALM      30.08R
DES MOINES     MOSUNNY   73  62  68 CALM      30.09R
KIRKSVILLE     PTSUNNY   72  60  66 W6        30.11R
OTTUMWA        SUNNY     71  64  78 N5        30.09R
ST LOUIS       MOSUNNY   77  66  68 CALM      30.10R
$$


CITY           SKY/WX    TMP DP  RH WIND       PRES   REMARKS
TERRE HAUTE    SUNNY     73  65  75 CALM      30.11F
EVANSVILLE     MOSUNNY   74  62  66 NE5       30.10S
INDIANAPOLIS   MOSUNNY   74  62  66 CALM      30.12S
LAFAYETTE      MOSUNNY   68  61  78 CALM      30.12S
MADISON        SUNNY     72  58  61 W3        30.08R
MILWAUKEE      MOSUNNY   74  58  57 VRB3      30.07S
$$




USA.gov is the U.S. government's official web portal to all federal, state and local government web resources and services.